Location: Gouy
(50.0008°N, 3.2556°E)
Time: 11:45:06
(UTC+00:00)

Cosmos 1400 Rocket - Pass Details

Date: 23 May 2024
Orbit: 501 x 544 km, 81.2° (Epoch: 14 June)

Event Time Altitude Azimuth Distance (km) Brightness Sun altitude
Exits shadow 00:32:29 47° 198° (SSW) 729 3.0 -18.5°
Maximum altitude 00:33:35 84° 281° (WNW) 554 2.7 -18.5°
Drops below altitude 10° 00:37:36 10° 11° (N) 1,817 6.7 -18.4°
Sets 00:39:46 0° 12° (NNE) 2,709 8.1 -18.3°
